{"data":{"norad_id":57857,"epoch":"2026-05-24T19:33:47.682144Z","epoch_age_seconds":91778,"freshness":"FRESH","line1":"1 57857U 23141T   26144.81513521  .00000373  00000+0  24687-4 0  9999","line2":"2 57857  53.1613 264.5252 0000698  70.2712 289.8364 15.30211515152340","mean_motion":15.30211515,"eccentricity":6.98e-5,"inclination_deg":53.1613,"raan_deg":264.5252,"arg_perigee_deg":70.2712,"mean_anomaly_deg":289.8364,"bstar":2.4687e-5,"rev_number":15234,"period_min":94.104637553979,"perigee_km":474.7023263459,"apogee_km":475.65904949514,"semimajor_km":6853.3176879205,"source":"CELESTRAK","updated_at":"2026-05-25T13:38:18.416809Z"}}